Location: Pl�tzky
(52.0521°N, 11.8020°E)
Time: 18:05:31
(UTC+00:00)

Tsikada Rocket - Pass Details

Date: 22 November 2019
Orbit: 958 x 1009 km, 82.9° (Epoch: 14 December)

Event Time Altitude Azimuth Distance (km) Brightness Sun altitude
Rises 17:00:06 0° 178° (S) 3,717 7.2 -16.0°
Reaches altitude 10° 17:02:37 10° 176° (S) 2,775 6.5 -16.3°
Maximum altitude 17:08:57 68° 95° (E) 1,084 4.0 -17.3°
Drops below altitude 10° 17:15:20 10° 14° (NNE) 2,800 6.2 -18.3°
Sets 17:17:53 0° 12° (NNE) 3,752 6.9 -18.6°
